642  
ASUS42 KRAH 190210  
RWRRAH  
NORTH CAROLINA WEATHER ROUNDUP  
NATIONAL WEATHER SERVICE RALEIGH NC  
1000 PM EDT FRI SEP 18 2020  
 
NOTE: "FAIR" INDICATES FEW OR NO CLOUDS BELOW 12,000 FEET WITH NO  
SIGNIFICANT WEATHER AND/OR S TO VISIBILITY
.  
 
NCZ001-053-055-056-065-067-190300-  
WESTERN NORTH CAROLINA  
 
CITY SKY/WX TMP DP RH WIND PRES REMARKS
 
ASHEVILLE MOCLDY 61 54 77 N12 30.15R  
JEFFERSON MOCLDY 54 49 85 N6 30.19R  
MORGANTON MOCLDY 64 56 76 CALM 30.15R  
HICKORY MOCLDY 64 57 78 N6 30.10R  
WILKESBORO NOT AVBL  
RUTHERFORDTON CLOUDY 64 55 72 N7 30.11R  
MOUNT AIRY NOT AVBL  
BOONE N/A 55 50 82 CALM 30.19R  

 
 
NCZ021-022-025-041-071-084-088-190300-  
CENTRAL NORTH CAROLINA  
 
CITY SKY/WX TMP DP RH WIND PRES REMARKS
 
CHARLOTTE CLOUDY 71 60 68 N10 30.07R  
GREENSBORO CLOUDY 68 62 81 NE8 30.09R  
WINSTON-SALEM CLOUDY 67 59 75 N8 30.11R  
RALEIGH-DURHAM CLOUDY 67 62 84 NE8 30.06R  
FORT BRAGG PTCLDY 68 65 92 N7 30.01S  
FAYETTEVILLE PTCLDY 68 62 81 N8 30.01R  
BURLINGTON MOCLDY 69 59 70 NE8 30.07R  
ROXBORO PTCLDY 63 59 88 N5 30.10R  
HENDERSON NOT AVBL  
LOUISBURG MOCLDY 63 61 94 N6 30.08R  
LAURINBURG MOCLDY 70 63 78 N8 30.03R  

 
 
NCZ011-015-027-028-043-044-047-080-103-190300-  
NORTHEASTERN NORTH CAROLINA  
 
CITY SKY/WX TMP DP RH WIND PRES REMARKS
 
ROCKY MT-WILSO MOCLDY 67 62 84 N9 30.03R  
GREENVILLE MOCLDY 64 61 88 N8 30.04R  
WASHINGTON CLOUDY 68 62 82 N9 30.01R  
ELIZABETH CITY PTCLDY 70 66 87 N13 30.00R  
MANTEO CLOUDY 70 64 81 NE22G31 29.98R  
CAPE HATTERAS CLOUDY 72 66 81 NE17G32 29.94R  

 
 
NCZ078-087-090-091-093-098-101-190300-  
SOUTHEASTERN NORTH CAROLINA  
 
CITY SKY/WX TMP DP RH WIND PRES REMARKS
 
GOLDSBORO PTCLDY 68 61 78 NE13 30.00R  
KINSTON PTCLDY 68 62 83 N9 30.02R  
KENANSVILLE PTCLDY 68 61 77 NE7 30.01R  
NEW BERN CLOUDY 69 64 84 N13 29.99R  
CHERRY POINT CLOUDY 70 64 81 N15G24 29.97R  
BEAUFORT CLOUDY 71 68 90 N14G24 29.95R  
JACKSONVILLE CLOUDY 71 64 78 N14G21 29.97R  
WILMINGTON CLOUDY 72 65 78 N16 29.97R  

 
 
 
 
CLICK HERE TO GO TO PREVIOUS BULLETINS.

The Nexlab NC Page Main Text Page